Location: *
(49.4547°N, 7.9131°E)
Time: 01:44:36
(UTC+00:00)

Cosmos 1455 Rocket - Pass Details

Date: 22 September 2019
Orbit: 605 x 629 km, 82.5° (Epoch: 13 October)

Event Time Altitude Azimuth Distance (km) Brightness Sun altitude
Rises 19:42:12 0° 205° (SSW) 2,897 6.5 -21.9°
Reaches altitude 10° 19:44:30 10° 211° (SSW) 1,998 5.7 -22.2°
Maximum altitude 19:48:46 46° 285° (WNW) 852 4.1 -22.8°
Drops below altitude 10° 19:53:05 10° 359° (N) 2,021 6.1 -23.4°
Sets 19:55:25 0° 6° (N) 2,934 6.9 -23.8°
